Lacon, IL

7:45 PM CDT on August 18, 2017 (GMT -0500)
Lacon

Weather History for KC75 - November, 2012

Change the Weather History Date:

Sunday, November 4, 2012

  Actual Average (KVYS) Record (KVYS)
Temperature  
Mean Temperature 40 °F -  
Max Temperature 50 °F 52 °F 78 °F (1987)
Min Temperature 30 °F 34 °F 10 °F (1991)
Degree Days  
Heating Degree Days 25    
Moisture  
Dew Point 34 °F    
Average Humidity 84    
Maximum Humidity 100    
Minimum Humidity 53    
Precipitation  
Precipitation 0.00 in - - ()
Sea Level Pressure  
Sea Level Pressure 30.21 in    
Wind  
Wind Speed 0 mph (NNW)    
Max Wind Speed 5 mph    
Max Gust Speed -    
Visibility 7 miles    
Events Fog , Rain    
Averages and records for this station are not official NWS values.
T = Trace of Precipitation, MM = Missing Value Source: NWS Daily Summary

Daily Weather History Graph

Daily Weather History Graph

Search for Another Location

Airport or City:

Trip Planner

Search our weather history database for the weather conditions in past years. The results will help you decide how hot, cold, wet, or windy it might be!

Date:

Astronomy

Nov. 04, 2012 Rise Set
Actual Time 6:32 AM CST 4:48 PM CST
Civil Twilight 6:03 AM CST 5:17 PM CST
Nautical Twilight 5:30 AM CST 5:50 PM CST
Astronomical Twilight 4:58 AM CST 6:22 PM CST
Moon 9:26 PM CST (11/4) 11:16 AM CST (11/4)
Length of Visible Light 11h 14m
Length of Day
10h 16m
Waning Gibbous, 72% of the Moon is Illuminated
Nov 4
Waning Gibbous
Nov 6
Last Quarter
Nov 13
New
Nov 20
First Quarter
Nov 28
Full

Hourly Weather History & Observations

Time (CST) Temp. Windchill Dew Point Humidity Pressure Visibility Wind Dir Wind Speed Gust Speed Precip Events Conditions
12:15 AM 33.8 °F - 32.2 °F 94% 30.22 in 7.0 mi Calm Calm - N/A   Scattered Clouds
12:35 AM 32.9 °F - 31.8 °F 96% 30.22 in 5.0 mi Calm Calm - N/A   Scattered Clouds
12:55 AM 32.2 °F - 31.3 °F 96% 30.23 in 5.0 mi Calm Calm - N/A   Clear
1:15 AM 32.0 °F - 30.7 °F 95% 30.23 in 5.0 mi Calm Calm - N/A   Clear
1:35 AM 31.8 °F - 30.7 °F 96% 30.22 in 4.0 mi Calm Calm - N/A   Scattered Clouds
1:55 AM 32.0 °F - 31.1 °F 96% 30.22 in 4.0 mi Calm Calm - N/A   Clear
1:15 AM 31.3 °F - 30.2 °F 96% 30.21 in 7.0 mi Calm Calm - N/A   Mostly Cloudy
1:35 AM 30.9 °F - 30.0 °F 96% 30.21 in 2.0 mi Calm Calm - N/A   Overcast
1:55 AM 30.9 °F - 30.4 °F 98% 30.21 in 0.2 mi Calm Calm - N/A Fog Light Freezing Fog
2:15 AM 31.3 °F - 30.9 °F 99% 30.22 in 0.2 mi Calm Calm - N/A Fog Light Freezing Fog
2:35 AM 32.0 °F - 32.0 °F 100% 30.23 in 0.2 mi Calm Calm - N/A Rain Light Rain
2:55 AM 32.5 °F - 32.4 °F 99% 30.23 in 0.2 mi Calm Calm - N/A Fog Fog
3:15 AM 31.8 °F - 31.6 °F 99% 30.23 in 0.5 mi Calm Calm - N/A Fog Fog
3:35 AM 32.2 °F - 32.0 °F 99% 30.23 in 1.8 mi Calm Calm - N/A   Overcast
3:55 AM 32.0 °F - 32.0 °F 100% 30.23 in 3.0 mi Calm Calm - N/A   Mostly Cloudy
4:15 AM 31.6 °F - 31.5 °F 99% 30.24 in 5.0 mi Calm Calm - N/A   Mostly Cloudy
4:35 AM 32.5 °F - 32.4 °F 99% 30.23 in 5.0 mi Calm Calm - N/A   Overcast
4:55 AM 32.4 °F - 32.0 °F 99% 30.23 in 3.0 mi Calm Calm - N/A   Mostly Cloudy
5:15 AM 32.4 °F - 32.0 °F 99% 30.23 in 5.0 mi Calm Calm - N/A   Mostly Cloudy
5:55 AM 33.1 °F - 32.7 °F 99% 30.24 in 4.0 mi Calm Calm - N/A   Overcast
6:15 AM 33.8 °F - 33.1 °F 97% 30.23 in 4.0 mi Calm Calm - N/A   Overcast
6:35 AM 34.2 °F - 33.8 °F 99% 30.24 in 3.0 mi Calm Calm - N/A   Overcast
6:55 AM 34.7 °F - 34.0 °F 97% 30.24 in 3.0 mi Calm Calm - N/A   Overcast
7:15 AM 34.3 °F - 33.8 °F 98% 30.25 in 3.0 mi Calm Calm - N/A   Overcast
7:35 AM 34.7 °F - 34.0 °F 97% 30.26 in 2.5 mi Calm Calm - N/A   Mostly Cloudy
7:55 AM 35.1 °F - 34.5 °F 98% 30.26 in 2.5 mi Calm Calm - N/A   Scattered Clouds
8:15 AM 37.6 °F - 36.7 °F 97% 30.26 in 3.0 mi Calm Calm - N/A   Mostly Cloudy
8:35 AM 39.2 °F - 37.9 °F 95% 30.26 in 5.0 mi Calm Calm - N/A   Scattered Clouds
8:55 AM 40.5 °F - 37.9 °F 91% 30.25 in 7.0 mi Calm Calm - N/A   Scattered Clouds
9:15 AM 41.2 °F - 37.9 °F 88% 30.25 in 7.0 mi Calm Calm - N/A   Mostly Cloudy
9:35 AM 42.3 °F - 38.1 °F 85% 30.25 in 7.0 mi Calm Calm - N/A   Overcast
9:55 AM 43.2 °F - 38.5 °F 84% 30.25 in 7.0 mi Calm Calm - N/A   Scattered Clouds
10:15 AM 44.6 °F - 39.0 °F 81% 30.25 in 7.0 mi Calm Calm - N/A   Mostly Cloudy
10:35 AM 44.8 °F - 38.8 °F 80% 30.25 in 10.0 mi Calm Calm - N/A   Overcast
10:55 AM 45.7 °F - 39.6 °F 79% 30.25 in 10.0 mi Calm Calm - N/A   Overcast
11:15 AM 46.0 °F 44.8 °F 39.0 °F 76% 30.25 in 10.0 mi NW 3.5 mph - N/A   Overcast
11:35 AM 46.6 °F - 38.8 °F 74% 30.24 in 10.0 mi NNW 3.5 mph - N/A   Overcast
11:55 AM 47.3 °F - 38.8 °F 72% 30.23 in 10.0 mi Calm Calm - N/A   Overcast
12:15 PM 47.8 °F - 38.7 °F 70% 30.23 in 10.0 mi Calm Calm - N/A   Overcast
12:35 PM 48.0 °F - 38.1 °F 69% 30.22 in 10.0 mi Calm Calm - N/A   Overcast
12:55 PM 48.7 °F - 37.8 °F 66% 30.21 in 10.0 mi NW 4.6 mph - N/A   Overcast
1:15 PM 48.4 °F - 36.7 °F 64% 30.21 in 10.0 mi Calm Calm - N/A   Mostly Cloudy
1:35 PM 48.6 °F - 36.0 °F 62% 30.20 in 10.0 mi Calm Calm - N/A   Mostly Cloudy
1:55 PM 48.4 °F - 36.1 °F 63% 30.20 in 10.0 mi Calm Calm - N/A   Mostly Cloudy
2:15 PM 49.8 °F - 35.8 °F 59% 30.19 in 10.0 mi Calm Calm - N/A   Mostly Cloudy
2:35 PM 50.0 °F - 34.5 °F 55% 30.19 in 10.0 mi Calm Calm - N/A   Scattered Clouds
2:55 PM 50.0 °F - 34.3 °F 55% 30.18 in 10.0 mi Calm Calm - N/A   Scattered Clouds
3:15 PM 50.4 °F - 33.6 °F 53% 30.18 in 10.0 mi Calm Calm - N/A   Scattered Clouds
3:35 PM 50.2 °F - 33.4 °F 53% 30.18 in 10.0 mi Calm Calm - N/A   Clear
3:55 PM 49.6 °F - 33.4 °F 54% 30.18 in 10.0 mi Calm Calm - N/A   Scattered Clouds
4:15 PM 49.1 °F - 33.8 °F 56% 30.18 in 10.0 mi Calm Calm - N/A   Mostly Cloudy
4:35 PM 48.0 °F - 34.3 °F 59% 30.18 in 10.0 mi Calm Calm - N/A   Overcast
4:55 PM 47.1 °F - 35.4 °F 64% 30.18 in 10.0 mi Calm Calm - N/A   Mostly Cloudy
5:15 PM 45.0 °F - 34.9 °F 68% 30.18 in 10.0 mi Calm Calm - N/A   Scattered Clouds
5:35 PM 42.4 °F - 34.7 °F 74% 30.18 in 10.0 mi Calm Calm - N/A   Mostly Cloudy
5:55 PM 42.1 °F - 34.9 °F 76% 30.18 in 10.0 mi Calm Calm - N/A   Mostly Cloudy
6:15 PM 41.5 °F - 34.5 °F 76% 30.18 in 10.0 mi Calm Calm - N/A   Scattered Clouds
6:35 PM 40.1 °F - 34.0 °F 79% 30.18 in 10.0 mi Calm Calm - N/A   Scattered Clouds
6:55 PM 39.0 °F - 33.4 °F 80% 30.18 in 10.0 mi Calm Calm - N/A   Clear
7:15 PM 37.4 °F - 33.1 °F 84% 30.18 in 10.0 mi Calm Calm - N/A   Clear
7:35 PM 35.4 °F - 32.9 °F 91% 30.18 in 10.0 mi Calm Calm - N/A   Clear
7:55 PM 35.6 °F - 32.4 °F 88% 30.19 in 10.0 mi Calm Calm - N/A   Scattered Clouds
8:15 PM 35.6 °F - 32.5 °F 89% 30.18 in 10.0 mi Calm Calm - N/A   Clear
8:35 PM 34.9 °F - 32.2 °F 90% 30.18 in 10.0 mi Calm Calm - N/A   Clear
8:55 PM 34.0 °F - 32.2 °F 93% 30.18 in 10.0 mi Calm Calm - N/A   Clear
9:15 PM 33.6 °F - 32.0 °F 94% 30.19 in 7.0 mi Calm Calm - N/A   Clear
9:35 PM 32.5 °F - 30.9 °F 94% 30.19 in 7.0 mi Calm Calm - N/A   Clear
9:55 PM 32.7 °F - 31.5 °F 95% 30.19 in 10.0 mi Calm Calm - N/A   Clear
10:15 PM 32.5 °F - 30.7 °F 93% 30.19 in 10.0 mi Calm Calm - N/A   Clear
10:35 PM 32.2 °F 28.9 °F 30.9 °F 95% 30.19 in 7.0 mi North 3.5 mph - N/A   Clear
10:55 PM 32.4 °F - 31.3 °F 96% 30.18 in 7.0 mi Calm Calm - N/A   Scattered Clouds